Le nostre stazioni meteo in Italia

Pubblicità
Il mio iltempo24.it
Modena, Italia (16128): Temperatura & dewpoint: 18.07.2019 07:00:00 - 24.07.2019 07:00:00 (CEST)Modena, Italia (16128): velocità del vento: 18.07.2019 07:00:00 - 24.07.2019 07:00:00 (CEST)Modena, Italia (16128): direzione del vento: 18.07.2019 07:00:00 - 24.07.2019 07:00:00 (CEST)Modena, Italia (16128): reduced air pressure: 18.07.2019 07:00:00 - 24.07.2019 07:00:00 (CEST)Modena, Italia (16128): precipitazioni: 18.07.2019 07:00:00 - 24.07.2019 07:00:00 (CEST)
Data & Tempo tt [°C] td [°C] ff [km/h] ff [kn] dd ppp [hPa] rr [mm]
24.07.2019 07:00:00 - - - - - - -
24.07.2019 06:00:00 - - - - - - -
24.07.2019 05:00:00 25,4 15,7 1 1 SSO 1017,1 0,0
24.07.2019 04:00:00 25,6 15,9 9 5 SSO 1017,0 0,0
24.07.2019 03:00:00 25,9 16,4 10 6 SO 1017,3 0,0
24.07.2019 02:00:00 26,3 16,5 8 5 SO 1017,5 0,0
24.07.2019 01:00:00 - - - - - - -
24.07.2019 00:00:00 - - - - - - -
23.07.2019 23:00:00 29,6 14,6 10 6 ESE 1017,0 0,0
23.07.2019 22:00:00 30,4 14,5 14 8 ESE 1016,9 0,0
23.07.2019 21:00:00 31,6 14,7 11 6 ESE 1016,8 0,0
23.07.2019 20:00:00 33,2 13,8 15 8 ESE 1016,6 0,0
23.07.2019 19:00:00 34,0 12,9 10 5 E 1016,7 0,0
23.07.2019 18:00:00 34,2 12,5 7 4 E 1016,9 0,0
23.07.2019 17:00:00 35,1 12,1 6 4 NNE 1017,1 0,0
23.07.2019 16:00:00 34,2 12,0 9 5 ENE 1017,8 0,0
23.07.2019 15:00:00 33,9 12,3 11 6 E 1018,3 0,0
23.07.2019 14:00:00 33,8 13,8 6 4 E 1018,8 0,0
23.07.2019 13:00:00 32,3 15,3 6 3 ESE 1019,4 0,0
23.07.2019 12:00:00 31,4 16,6 6 3 SSE 1019,8 0,0
23.07.2019 11:00:00 29,4 17,2 5 3 E 1020,0 0,0
23.07.2019 10:00:00 28,4 17,9 0 0 ONO 1020,2 0,0
23.07.2019 09:00:00 26,3 17,9 1 0 ONO 1020,5 0,0
23.07.2019 08:00:00 24,7 17,7 6 3 NO 1020,4 0,0
23.07.2019 07:00:00 23,7 17,7 - - - 1020,3 -
23.07.2019 06:00:00 24,1 16,6 3 1 O 1020,1 0,0
23.07.2019 05:00:00 24,5 17,0 0 0 SO 1019,7 0,0
23.07.2019 04:00:00 24,8 17,0 5 3 OSO 1019,8 0,0
23.07.2019 03:00:00 25,6 17,3 - - - 1020,1 0,0
23.07.2019 02:00:00 26,5 17,6 6 4 SO 1020,3 0,0
23.07.2019 01:00:00 27,0 18,0 5 3 SSO 1020,5 0,0
23.07.2019 00:00:00 28,4 18,5 0 0 SSE 1020,2 0,0
22.07.2019 23:00:00 29,4 18,2 0 0 ENE 1020,1 0,0
22.07.2019 22:00:00 30,4 17,5 0 0 N 1019,8 0,0
22.07.2019 21:00:00 31,4 17,3 0 0 ENE 1019,5 0,0
22.07.2019 20:00:00 31,9 16,6 5 3 ENE 1019,4 0,0
22.07.2019 19:00:00 32,6 15,1 6 4 N 1019,3 0,0
22.07.2019 18:00:00 33,1 14,2 7 4 NNO 1019,5 0,0
22.07.2019 17:00:00 33,1 14,7 5 3 NNO 1020,0 0,0
22.07.2019 16:00:00 32,6 13,8 9 5 NNO 1020,6 0,0
22.07.2019 15:00:00 32,3 15,8 9 5 N 1020,8 0,0
22.07.2019 14:00:00 32,6 15,6 5 3 NNO 1021,2 0,0
22.07.2019 13:00:00 31,2 15,2 6 4 ENE 1021,9 0,0
22.07.2019 12:00:00 30,2 16,6 3 1 N 1022,2 0,0
22.07.2019 11:00:00 28,5 17,1 3 2 ONO 1022,4 0,0
22.07.2019 10:00:00 26,1 16,9 5 3 NO 1022,3 0,0
22.07.2019 09:00:00 25,0 15,9 10 6 ONO 1022,5 0,0
22.07.2019 08:00:00 23,7 15,7 4 2 O 1022,3 0,0
22.07.2019 07:00:00 22,7 16,9 8 4 O 1022,1 0,0
22.07.2019 06:00:00 22,4 16,7 1 1 O 1021,6 0,0
22.07.2019 05:00:00 22,7 18,0 6 3 OSO 1021,1 0,0
22.07.2019 04:00:00 22,9 17,8 0 0 ONO 1021,1 0,0
22.07.2019 03:00:00 24,0 16,3 6 3 ONO 1021,0 0,0
22.07.2019 02:00:00 24,9 15,5 9 5 O 1020,9 0,0
22.07.2019 01:00:00 26,3 15,7 6 4 OSO 1020,8 0,0
22.07.2019 00:00:00 27,5 15,2 2 1 NO 1020,7 0,0
21.07.2019 23:00:00 28,8 13,9 4 2 E 1020,2 0,0
21.07.2019 22:00:00 29,8 13,5 9 5 ENE 1019,5 0,0
21.07.2019 21:00:00 31,6 12,4 6 4 NE 1018,3 0,0
21.07.2019 20:00:00 32,9 12,0 4 2 N 1017,8 0,0
21.07.2019 19:00:00 33,5 11,4 5 3 N 1017,6 0,0
21.07.2019 18:00:00 33,4 11,3 7 4 NNO 1017,5 0,0
21.07.2019 17:00:00 33,7 10,9 6 3 NNE 1017,6 0,0
21.07.2019 16:00:00 33,5 10,8 6 4 NNO 1018,1 0,0
21.07.2019 15:00:00 32,7 10,1 5 3 ONO 1018,5 0,0
21.07.2019 14:00:00 31,7 10,4 8 5 NNO 1019,0 0,0
21.07.2019 13:00:00 30,6 10,0 6 4 NNO 1019,4 0,0
21.07.2019 12:00:00 30,0 9,5 9 5 NNO 1019,4 0,0
21.07.2019 11:00:00 28,7 10,8 8 4 ONO 1019,6 0,0
21.07.2019 10:00:00 27,6 9,9 7 4 ONO 1019,6 0,0
21.07.2019 09:00:00 24,8 11,4 6 3 OSO 1019,6 0,0
21.07.2019 08:00:00 23,6 11,0 4 2 OSO 1019,6 0,0
21.07.2019 07:00:00 21,7 11,1 4 2 OSO 1019,5 0,0
21.07.2019 06:00:00 21,7 10,8 8 4 SSO 1019,4 0,0
21.07.2019 05:00:00 22,7 10,8 7 4 ONO 1019,2 0,0
21.07.2019 04:00:00 23,4 10,8 7 4 SO 1019,0 0,0
21.07.2019 03:00:00 24,0 11,3 9 5 S 1019,0 0,0
21.07.2019 02:00:00 24,2 12,2 8 4 SSO 1019,2 0,0
21.07.2019 01:00:00 25,9 12,4 3 1 OSO 1018,9 0,0
21.07.2019 00:00:00 27,1 12,7 5 3 OSO 1018,6 0,0
20.07.2019 23:00:00 27,6 12,4 10 6 ONO 1018,1 0,0
20.07.2019 22:00:00 29,0 12,4 14 7 ONO 1017,7 0,0
20.07.2019 21:00:00 31,2 11,6 9 5 SO 1016,7 0,0
20.07.2019 20:00:00 32,2 12,9 3 2 OSO 1016,4 0,0
20.07.2019 19:00:00 32,5 13,2 6 3 SSO 1016,4 0,0
20.07.2019 18:00:00 32,7 13,4 8 5 ONO 1016,6 0,0
20.07.2019 17:00:00 32,2 12,9 9 5 ONO 1016,9 0,0
20.07.2019 16:00:00 32,3 12,5 8 4 NNO 1017,1 0,0
20.07.2019 15:00:00 32,2 12,4 8 4 N 1017,2 0,0
20.07.2019 14:00:00 31,4 14,1 9 5 NNO 1017,6 0,0
20.07.2019 13:00:00 30,0 15,7 6 3 N 1017,9 0,0
20.07.2019 12:00:00 29,0 15,5 3 1 NNO 1018,2 0,0
20.07.2019 11:00:00 27,1 15,5 6 4 NO 1018,4 0,0
20.07.2019 10:00:00 25,9 15,6 2 1 NNO 1018,2 0,0
20.07.2019 09:00:00 24,0 15,2 1 1 NO 1018,3 0,0
20.07.2019 08:00:00 22,6 14,9 1 1 ONO 1018,0 0,0
20.07.2019 07:00:00 21,7 12,5 2 1 SO 1017,7 0,0
20.07.2019 06:00:00 21,5 12,6 4 2 SO 1017,2 0,0
20.07.2019 05:00:00 21,7 12,8 4 2 OSO 1017,1 0,0
20.07.2019 04:00:00 21,8 13,4 6 3 SO 1016,8 0,0
20.07.2019 03:00:00 22,3 14,4 8 4 SO 1016,8 0,0
20.07.2019 02:00:00 22,9 15,5 3 2 OSO 1016,9 0,0
20.07.2019 01:00:00 23,5 15,8 4 2 OSO 1016,8 0,0
20.07.2019 00:00:00 25,1 16,0 1 1 O 1016,5 0,0
19.07.2019 23:00:00 26,6 15,0 1 0 SO 1016,1 0,0
19.07.2019 22:00:00 26,7 14,5 7 4 SO 1015,7 0,0
19.07.2019 21:00:00 28,0 13,5 9 5 SO 1015,1 0,0
19.07.2019 20:00:00 29,5 12,4 9 5 SO 1014,9 0,0
19.07.2019 19:00:00 31,0 12,4 7 4 O 1014,6 0,0
19.07.2019 18:00:00 - - - - - - -
19.07.2019 17:00:00 31,1 11,5 5 3 N 1015,0 0,0
19.07.2019 16:00:00 31,0 12,4 2 1 NE 1015,0 0,0
19.07.2019 15:00:00 29,8 13,1 5 3 NE 1015,4 0,0
19.07.2019 14:00:00 29,3 14,3 8 4 ENE 1015,9 0,0
19.07.2019 13:00:00 28,3 14,5 8 5 ENE 1016,2 0,0
19.07.2019 12:00:00 26,5 17,0 1 1 NO 1016,4 0,0
19.07.2019 11:00:00 26,0 17,4 2 1 NO 1016,5 0,0
19.07.2019 10:00:00 23,9 16,7 5 3 NO 1016,6 0,0
19.07.2019 09:00:00 22,2 15,5 6 3 O 1016,6 0,0
19.07.2019 08:00:00 20,8 14,2 - - - 1016,1 0,0
19.07.2019 07:00:00 19,4 14,0 4 2 O 1015,9 0,0
19.07.2019 06:00:00 19,2 14,0 2 1 O 1015,6 0,0
19.07.2019 05:00:00 19,9 14,0 5 3 OSO 1015,3 0,0
19.07.2019 04:00:00 19,9 14,7 5 3 OSO 1015,3 0,0
19.07.2019 03:00:00 20,5 15,7 4 2 O 1015,1 0,0
19.07.2019 02:00:00 21,6 16,8 1 1 SO 1014,8 0,0
19.07.2019 01:00:00 22,3 16,3 3 2 SSO 1014,5 0,0
19.07.2019 00:00:00 22,3 17,9 0 0 NO 1014,1 0,0
18.07.2019 23:00:00 24,4 17,1 0 0 SO 1013,6 0,0
18.07.2019 22:00:00 24,8 17,3 0 0 SO 1013,2 0,0
18.07.2019 21:00:00 25,1 17,3 9 5 SE 1012,4 0,0
18.07.2019 20:00:00 25,9 16,7 15 8 SE 1012,3 0,0
18.07.2019 19:00:00 26,3 16,8 11 6 E 1012,1 0,0
18.07.2019 18:00:00 26,5 15,8 1 0 E 1012,1 0,0
18.07.2019 17:00:00 25,5 16,4 2 1 SE 1012,3 0,0
18.07.2019 16:00:00 24,2 14,6 6 4 SO 1012,6 0,0
18.07.2019 15:00:00 22,8 14,1 6 3 O 1013,1 0,0
18.07.2019 14:00:00 20,8 14,7 13 7 O 1013,6 0,0
18.07.2019 13:00:00 22,0 16,3 14 7 ONO 1013,4 0,0
18.07.2019 12:00:00 23,2 16,3 16 9 O 1013,1 0,0
18.07.2019 11:00:00 24,0 16,5 10 6 O 1012,6 0,0
18.07.2019 10:00:00 23,3 17,3 5 3 NO 1012,1 0,0
18.07.2019 09:00:00 21,9 15,5 7 4 NO 1012,0 0,0
18.07.2019 08:00:00 21,2 11,8 8 4 ONO 1011,7 0,0
18.07.2019 07:00:00 19,2 11,5 10 5 O 1011,5 0,0

tt = Temperatura
td = dewpoint
ff = velocità del vento
dd = direzione del vento
ppp = reduced air pressure
rr = precipitazioni

Stazioni seguenti

WeatherPro
AMSI
MeteoEarth